Location: Killam
(52.7910°N, 111.8608°W)
Time: 23:11:10
(UTC+00:00)

Vanguard 3 - Pass Details

Date: 22 February 2026
Orbit: 507 x 3205 km, 33.4° (Epoch: 11 March)

Event Time Altitude Azimuth Distance (km) Brightness Sun altitude
Rises 20:44:45 0° 207° (SSW) 6,671 13.1 25.8°
Reaches altitude 10° 20:52:10 10° 190° (S) 5,153 13.0 25.4°
Maximum altitude 20:59:07 15° 160° (SSE) 4,099 11.7 25.1°
Drops below altitude 10° 21:04:40 10° 129° (SE) 3,958 10.9 24.8°
Sets 21:09:01 0° 108° (ESE) 4,442 10.9 24.5°
